Flag for Venezuela Weather past 2 weeks in Valencia, Venezuela

Now
81 °F

Passing clouds.


Feels Like: 85 °F
Forecast: 68 / 88 °F
Wind: 3 mph from West

Location: Valencia Airport

Current Time: Jul 31, 2014 at 7:56:24 PM

Latest Report: Jul 31, 2014 at 6:30 PM


Visibility: N/A

Pressure: 29.92 "Hg

Humidity: 79%

Dew point: 73 °F

Location of ValenciaLocation

Historic Weather in Valencia — Graph

°F

Valencia temperature yesterday

Maximum temperature yesterday: 84 °F (at 11:30 AM)
Minimum temperature yesterday: 72 °F (at 6:30 AM)
Average temperature yesterday: 76 °F

Past Weeks' High & Low Weather Summary

 TemperatureHumidityPressure
High93 °F (Jul 25, 1:30 PM)100% (Jul 30, 9:30 AM)30.12 "Hg (Jul 30, 9:30 AM)
Low70 °F (Jul 31, 6:30 AM)47% (Jul 25, 1:30 PM)29.86 "Hg (Jul 23, 5:30 PM)
Average80 °F76%30.01 "Hg
* Reported Jul 16 6:30 PM — Jul 31 6:30 PM, Valencia, Weather by CustomWeather, © 2014

Note: Actual official high and low records may vary slightly from our data, if they occured in-between our weather recording intervals... More about our weather records

Advertising

Valencia weather history for previous 24 hours

 ConditionsComfort  
Time TempWeatherWind HumidityBarometerVisibility
6:30 PM
Jul 31
81 °FPassing clouds.3 mph79%29.92 "HgN/A
5:30 PM81 °FScattered clouds.7 mph74%29.92 "HgN/A
4:30 PM84 °FScattered clouds.5 mph70%29.92 "HgN/A
3:30 PM81 °FDrizzle. Partly sunny.8 mph84%29.95 "HgN/A
2:30 PM82 °FPartly sunny.3 mph79%29.95 "HgN/A
1:30 PM82 °FPartly sunny.8 mph70%29.98 "HgN/A
12:30 PM84 °FScattered clouds.8 mph66%30.01 "HgN/A
11:30 AM81 °FScattered clouds.7 mph70%30.07 "HgN/A
10:30 AM81 °FScattered clouds.7 mph74%30.07 "HgN/A
9:30 AM79 °FScattered clouds.No wind74%30.07 "HgN/A
8:30 AM77 °FScattered clouds.3 mph83%30.07 "HgN/A
7:30 AM73 °FPassing clouds.No wind94%30.07 "HgN/A
6:30 AM70 °FFog.No wind100%30.07 "Hg5 mi
4:30 AM72 °FDense fog.No wind94%30.04 "Hg1 mi
1:30 AM72 °FPassing clouds.No wind94%30.07 "HgN/A
9:30 PM
Jul 30
73 °FPassing clouds.2 mph89%30.09 "HgN/A
8:30 PM73 °FPassing clouds.1 mph89%30.04 "HgN/A
7:30 PM73 °FPassing clouds.3 mph89%30.04 "HgN/A
Weather by CustomWeather, © 2014

See weather overviewHow to use our weather pages